Terug naar catalogus

STARLINK-34455

ActiefCommunicatieVLEO
NORAD 65497·PAYLOAD·🇺🇸 United States

Gelanceerd Sep 5, 2025 vanaf Cape Canaveral Space Force Station

Loading…

Volgende Passages (komende 24 uur)

TLE

VersSource: CelesTrak SupGP

Epoch: Sep 14, 2026, 15:14 UTC

1 65497C 25198F   26257.63520833  .00007281  00000+0  21511-3 0  2575
2 65497  53.1572 109.1336 0001220  97.8885  65.7430 15.34388467    14

Volg STARLINK-34455 in realtime met AllMySat

Download on the App Store